STARLINK-34039, 63946

Orbit data source: Space-Track

STARLINK-34039, 63946 is a payload satellite owned by SpaceX/Seattle (US) in LEO that was launched on Tue, 13 May 2025 UTC via an FALCON 9 launch vehicle from the Air Force Western Test Range (AFWTR). Payload-class satellites include a variety of spacecraft equipped with specific instruments for various scientific and technological missions. These include communications satellites like Starlink; space stations such as the ISS; scientific satellites like the Hubble; Earth observation satellites from companies like Planet Labs, Umbra, and HawkEye 360; GPS; miniature CubeSats for education and research; and military/defense satellites.

Loading next visibility...
Identifier
63946, 2025-098W
Orbit
LEO
Country
Flag of USUS
Related business
Manufacturer
SpaceX/Seattle
Mission
Operational Commercial Communications
Bus & Motor
STARLINK V2MO, Unknown motor
Mass
575 kg wet, ~530 kg dry
Launch date (UTC)
2025-05-13 (1 year ago)
Launch vehicle
FALCON 9
Launch site
Air Force Western Test Range (AFWTR)
Object type
Payload
Rocket body
Debris
Shape & HBR
Box + 2 Pan, 17.7 m
Radar Cross Section
36.964 m², Large (>1 m²)

Expand to show TLE details & history
Last TLE update: 1 day ago

TLE from 1 day ago
0 STARLINK-34039
1 63946U 25098W   26170.92341969  .00004044  00000-0  34647-3 0  9990
2 63946  70.0017  16.7887 0003294 267.9212  92.1569 14.98334635 61868
Epoch: 2026-06-19T22:09Z
TLE epoch observation values (Epoch: 2026-06-19T22:09:43.461Z)
Latitude
-0.00009°
Longitude
136.21215°
Altitude
574.552 km
Speed
7.574 km/s
True Right ascension
01h 07m 09s
True Declination
0° 00' 00"
Sunlit
Object was in daylight at epoch
Visualization orbit readout
Latitude
Unknown
Longitude
Unknown
Altitude
Unknown
Speed
Unknown
Apparent Right ascension
Unknown
Apparent Declination
Unknown
Sunlit
N/A
Visualization observer readout
Local Sidereal Time
10:20:19
Azimuth
Unknown
Elevation
Unknown
Doppler factor
Unknown
Orbital elements
Apogee altitude
572.278 km
Perigee altitude
567.701 km
Semi-major axis
6,948.127 km
Eccentricity
0.00033
Inclination
70.0017°
RAAN
16.7887°
Arg. of periapsis
267.9212°
True anomaly
92.19462°
Mean anomaly
92.1569°
Eccentric anomaly
92.17576°
Mean motion
3.7475 °/min
Orbital period
96.06 mins
BSTAR
0.00034647
Loading maneuver chart data...
Computing Atmospheric mass density...
Loading historical data...
Loading historical data...
Loading historical data...
Loading historical data...
Loading historical data...
Loading historical data...
Loading historical data...

Documentation

Showing up to 5 results
|